Location: *
(57.8420°S, 159.8600°W)
Time: 05:23:37
(UTC+00:00)

Cosmos 1437 Rocket - Pass Details

Date: 18 May 2021
Orbit: 501 x 565 km, 81.2° (Epoch: 20 June)

Event Time Altitude Azimuth Distance (km) Brightness Sun altitude
Rises 04:04:15 0° 196° (SSW) 2,659 6.3 -12.4°
Reaches altitude 10° 04:06:25 10° 195° (SSW) 1,762 5.4 -12.7°
Maximum altitude 04:10:17 87° 102° (ESE) 524 2.6 -13.2°
Drops below altitude 10° 04:14:07 10° 15° (NNE) 1,740 5.4 -13.7°
Sets 04:16:14 0° 14° (NNE) 2,622 6.3 -13.9°
